Vorticity
6 8 15 17 12 13 14 11 12 4 2 6 11 5 6 5 -12 -9 8 3 2 10 9 9 7 -1 2 5 10 12 5 14 13 8 2 5 11 9 12 13 9 11 11
6 9 13 16 19 24 14 15 8 -0 6 4 4 2 6 18 -7 11 0 -4 13 7 11 10 2 1 -0 8 13 8 7 4 13 8 11 10 18 15 12 6 5 32 28
6 9 14 14 16 17 11 10 2 3 6 1 7 7 2 -1 -4 -6 7 5 6 10 -2 9 5 3 3 13 15 14 6 10 11 14 13 11 6 5 12 14 15 -6 9
3 6 12 7 12 10 4 6 3 3 6 5 5 -1 3 9 8 7 3 3 6 1 7 9 6 6 13 14 16 9 12 15 9 8 5 9 15 2 13 7 8 -0 4
3 8 -1 14 12 12 7 7 3 10 5 6 2 -2 6 0 5 5 3 4 5 -1 -4 15 10 15 17 16 10 11 13 9 7 28 12 3 3 2 9 12 -0 -6 5
-1 8 13 5 18 11 10 6 4 5 -2 -8 17 10 8 8 2 2 4 -0 1 -4 10 20 17 11 11 16 15 10 13 20 17 6 0 8 5 4 5 12 8 14 4
14 9 14 6 12 11 9 12 5 -0 4 7 3 3 5 3 3 4 6 -1 6 -1 13 21 12 7 9 12 15 5 14 0 13 16 -8 21 -10 4 3 10 8 3 14
2 11 11 11 7 8 14 12 5 4 2 -1 -1 2 -1 -9 -6 2 -4 1 0 2 13 22 6 9 8 4 10 8 12 11 12 18 -17 7 9 9 13 6 9 7 6
6 8 11 6 3 6 13 12 9 4 -5 4 -3 2 -10 22 2 1 -4 3 5 2 19 17 9 3 2 12 9 12 16 6 17 -4 -17 -0 11 7 7 -0 6 12 11
4 15 9 15 7 1 5 22 -2 -6 -1 4 1 4 14 2 5 7 11 2 -1 3 14 11 14 10 6 10 12 8 9 4 19 11 14 9 3 6 6 12 21 16 15
1 12 -10 13 14 4 4 -0 17 9 5 1 2 12 -10 -5 13 4 2 -1 -0 7 17 8 11 16 13 14 17 10 5 6 10 10 13 25 1 14 18 17 16 20 21
-2 19 -6 24 15 -1 2 1 10 12 2 7 7 9 3 -1 10 5 2 2 2 17 11 12 14 11 17 -0 18 6 8 10 9 12 14 11 12 22 19 16 10 10 12
4 8 16 9 14 6 2 -2 5 12 3 10 5 9 -4 6 -0 2 2 4 8 9 13 16 13 12 7 10 18 17 14 8 9 15 18 23 17 10 12 14 16 18 19
14 6 0 16 3 15 6 4 -2 10 6 14 -1 -3 4 1 0 -0 4 1 1 16 18 13 11 6 13 20 13 12 10 17 22 16 9 11 13 16 16 17 21 22 22
16 2 12 4 12 9 10 15 6 5 1 -3 1 0 2 -1 7 1 -4 1 8 17 14 11 8 16 17 15 15 17 19 14 9 11 11 13 11 14 21 22 21 18 17
8 43 14 10 30 17 8 5 20 -1 -1 5 5 -2 2 -3 10 3 -3 8 19 15 11 11 13 16 18 18 16 11 10 13 13 16 14 11 12 15 19 20 16 14 17
12 19 46 -13 19 7 23 -0 4 -6 6 1 5 -1 3 1 6 6 1 -13 16 12 10 10 18 19 13 16 11 11 13 14 15 13 9 9 12 13 15 17 13 11 10
60 5 64 -28 0 2 15 26 1 2 2 -0 11 -8 11 -8 22 50 54 15 13 9 9 17 19 8 13 14 9 14 15 11 11 10 12 12 11 12 12 12 13 13 12
2 19 15 15 18 6 4 -4 1 -0 5 11 -2 14 -6 -4 8 8 10 12 10 8 13 23 9 10 15 9 17 17 11 10 8 6 9 14 11 10 12 13 13 16 18
13 8 12 13 8 2 0 9 -5 4 7 1 -9 -1 8 -8 -3 6 13 12 7 11 21 12 6 15 11 15 17 11 9 9 8 7 8 9 12 12 11 12 13 10 11
7 13 2 29 14 5 -5 5 31 14 -3 25 45 5 10 13 8 11 11 11 13 18 16 7 8 19 14 14 14 6 0 4 6 9 9 10 10 13 10 12 13 14 19
57 9 11 13 8 13 8 5 48 46 4 9 -8 14 10 5 15 14 15 14 14 14 8 6 15 12 11 13 11 4 1 5 12 7 9 10 10 10 10 10 10 15 20
8 14 -1 -1 -1 22 8 11 12 -7 9 -7 34 16 5 14 8 16 9 18 8 6 5 12 17 9 12 12 11 3 5 12 14 9 8 10 9 9 10 10 11 11 21
17 31 1 1 2 1 -1 9 9 13 46 34 6 -1 8 6 15 7 19 9 9 9 7 21 9 15 11 10 8 4 8 8 12 10 10 10 11 11 9 7 10 10 19
10 5 -5 6 -13 -8 37 45 16 17 20 -7 5 7 8 12 12 15 11 9 8 6 12 14 14 16 9 10 6 5 8 10 11 10 7 9 8 8 12 10 7 12 10
19 0 7 66 32 27 21 -3 2 8 6 5 14 10 -1 7 15 10 9 10 6 7 15 16 13 14 8 8 4 5 7 9 12 8 4 5 5 8 10 10 10 7 11
Height
5896 5897 5898 5897 5897 5899 5901 5902 5902 5902 5905 5905 5905 5904 5902 5901 5899 5899 5897 5893 5890 5887 5884 5881 5879 5875 5871 5868 5865 5863 5859 5856 5853 5851 5848 5846 5845 5844 5844 5844 5843 5843 5842
5893 5893 5893 5893 5892 5893 5895 5897 5897 5898 5899 5901 5900 5899 5898 5897 5895 5894 5893 5890 5887 5884 5880 5876 5874 5871 5866 5863 5860 5856 5852 5849 5846 5843 5841 5839 5838 5836 5834 5832 5831 5831 5829
5889 5890 5889 5890 5889 5889 5890 5892 5894 5896 5896 5897 5897 5896 5895 5893 5891 5889 5887 5885 5883 5880 5877 5873 5868 5864 5860 5856 5852 5848 5845 5842 5838 5836 5834 5832 5830 5827 5826 5824 5822 5819 5819
5885 5886 5887 5887 5887 5886 5886 5888 5889 5890 5892 5892 5892 5891 5890 5889 5887 5885 5882 5880 5877 5874 5869 5866 5862 5857 5853 5849 5845 5841 5838 5835 5832 5829 5825 5822 5821 5819 5818 5816 5814 5811 5808
5881 5883 5884 5883 5883 5883 5883 5885 5885 5886 5886 5887 5887 5887 5886 5884 5882 5879 5877 5874 5872 5868 5864 5858 5854 5850 5846 5843 5840 5835 5832 5828 5825 5820 5815 5814 5812 5811 5808 5807 5804 5801 5799
5875 5877 5878 5878 5878 5879 5879 5880 5881 5881 5880 5881 5881 5880 5880 5879 5876 5873 5871 5869 5866 5864 5859 5852 5847 5843 5838 5836 5832 5828 5824 5820 5816 5812 5806 5806 5804 5802 5798 5796 5792 5789 5787
5868 5870 5871 5872 5873 5873 5874 5874 5876 5876 5876 5876 5875 5874 5873 5872 5869 5867 5864 5863 5860 5854 5849 5845 5840 5835 5830 5826 5822 5819 5816 5812 5808 5804 5801 5798 5794 5789 5787 5783 5779 5776 5771
5859 5862 5864 5866 5867 5867 5867 5868 5869 5869 5869 5868 5868 5866 5864 5862 5859 5859 5857 5854 5850 5846 5842 5838 5833 5828 5822 5817 5813 5810 5807 5802 5798 5795 5791 5786 5782 5777 5774 5770 5767 5761 5758
5851 5853 5856 5858 5860 5860 5861 5862 5862 5862 5862 5861 5859 5856 5855 5858 5852 5850 5848 5845 5842 5838 5833 5829 5825 5819 5813 5808 5805 5800 5796 5792 5788 5786 5781 5774 5769 5764 5759 5756 5751 5747 5743
5841 5846 5848 5850 5851 5853 5854 5854 5854 5855 5854 5854 5853 5852 5849 5846 5843 5841 5839 5836 5833 5829 5825 5820 5815 5810 5804 5799 5795 5790 5785 5780 5777 5773 5768 5762 5756 5751 5746 5741 5736 5731 5726
5830 5834 5836 5839 5841 5843 5845 5845 5846 5845 5844 5845 5843 5840 5834 5836 5835 5833 5830 5827 5823 5819 5815 5809 5804 5800 5795 5790 5785 5781 5776 5770 5765 5761 5756 5750 5744 5738 5732 5727 5722 5718 5713
5818 5821 5824 5827 5829 5832 5834 5836 5834 5834 5836 5832 5825 5820 5825 5827 5825 5822 5820 5817 5814 5809 5804 5798 5794 5790 5786 5781 5775 5770 5764 5758 5753 5748 5743 5738 5732 5727 5720 5715 5711 5706 5701
5808 5810 5812 5815 5818 5822 5824 5823 5823 5824 5824 5822 5818 5815 5818 5818 5817 5814 5812 5808 5805 5801 5795 5789 5785 5781 5777 5771 5766 5759 5754 5749 5743 5737 5732 5727 5722 5716 5710 5705 5699 5693 5688
5794 5798 5801 5803 5806 5809 5810 5811 5810 5810 5810 5807 5810 5810 5810 5809 5807 5805 5802 5800 5796 5792 5786 5780 5776 5772 5767 5761 5756 5751 5745 5739 5733 5726 5721 5716 5711 5706 5700 5693 5686 5681 5677
5780 5783 5785 5788 5791 5793 5795 5796 5797 5796 5797 5794 5800 5802 5800 5799 5797 5794 5792 5789 5786 5781 5775 5771 5766 5763 5758 5752 5746 5740 5735 5730 5725 5719 5714 5709 5703 5697 5690 5683 5678 5674 5669
5762 5760 5758 5769 5773 5770 5777 5769 5771 5774 5784 5788 5791 5790 5790 5788 5787 5784 5782 5779 5777 5771 5766 5762 5757 5753 5748 5743 5737 5732 5726 5722 5718 5713 5707 5702 5696 5689 5683 5677 5672 5667 5663
5747 5749 5755 5758 5752 5745 5760 5760 5763 5774 5776 5779 5779 5778 5778 5777 5775 5773 5770 5769 5767 5760 5757 5752 5748 5744 5740 5734 5728 5723 5720 5716 5712 5707 5702 5695 5689 5683 5677 5671 5666 5661 5657
5731 5711 5729 5747 5748 5746 5758 5756 5762 5766 5768 5769 5768 5769 5768 5767 5764 5758 5757 5758 5755 5749 5746 5742 5737 5733 5732 5726 5722 5717 5714 5712 5707 5701 5696 5690 5685 5678 5672 5666 5661 5656 5652
5719 5724 5731 5737 5740 5740 5746 5751 5753 5753 5757 5757 5757 5758 5758 5756 5754 5751 5749 5746 5743 5739 5736 5734 5729 5724 5723 5719 5714 5712 5709 5706 5701 5696 5691 5685 5680 5674 5667 5661 5656 5650 5645
5713 5718 5726 5730 5733 5736 5739 5742 5742 5745 5745 5743 5743 5743 5744 5743 5740 5738 5737 5734 5731 5728 5728 5725 5721 5717 5715 5711 5708 5705 5702 5699 5694 5690 5685 5680 5675 5669 5663 5657 5651 5645 5639
5708 5712 5717 5721 5727 5732 5732 5733 5735 5734 5733 5730 5731 5730 5729 5729 5727 5727 5725 5724 5721 5720 5718 5715 5710 5709 5707 5703 5701 5700 5697 5694 5689 5685 5680 5675 5670 5665 5659 5653 5647 5640 5634
5696 5702 5707 5712 5716 5721 5722 5722 5718 5720 5721 5720 5719 5717 5717 5717 5717 5717 5714 5713 5712 5711 5709 5705 5702 5700 5698 5696 5694 5693 5690 5686 5683 5680 5675 5671 5666 5660 5655 5649 5643 5636 5630
5693 5691 5698 5703 5707 5706 5707 5705 5706 5706 5708 5707 5705 5704 5704 5706 5706 5705 5704 5702 5702 5700 5699 5697 5693 5691 5690 5689 5688 5685 5683 5680 5677 5674 5670 5665 5661 5656 5651 5646 5640 5634 5627
5686 5688 5691 5692 5694 5694 5695 5694 5693 5693 5692 5694 5695 5694 5693 5693 5693 5692 5691 5691 5691 5690 5688 5687 5685 5683 5682 5681 5681 5678 5676 5674 5671 5668 5665 5661 5657 5652 5648 5643 5637 5631 5625
5673 5676 5678 5678 5680 5681 5682 5679 5681 5682 5684 5684 5684 5684 5684 5684 5683 5682 5681 5681 5680 5679 5678 5677 5676 5675 5675 5674 5674 5670 5668 5667 5665 5663 5660 5656 5652 5648 5644 5639 5635 5630 5624
5662 5663 5664 5663 5664 5664 5665 5667 5670 5672 5672 5671 5671 5671 5671 5670 5671 5670 5669 5670 5670 5668 5668 5667 5666 5666 5666 5666 5666 5664 5662 5660 5658 5656 5654 5651 5648 5644 5640 5636 5632 5628 5622